#timestamp,LO_Frequency,Hit,StdDev 
1460034015.1,286047000.0,N
1460034016.0,286047000.0,N
1460034035.8,286046999.1,N
1460034055.6,286046998.0,N
1460034075.5,286046994.2,Y
1460034095.3,286046996.8,P
1460034115.1,286046997.0,N
1460034135.8,286046999.6,N
1460034155.7,286046999.4,N
1460034175.5,286047000.7,N
1460034195.3,286047000.2,N
1460034215.2,286046995.3,Y
1460034235.0,286046996.6,P
1460034235.9,286046996.6,N
1460034255.7,286046999.4,N
1460034275.6,286046998.2,N
1460034295.4,286047000.3,N
1460034315.2,286047000.5,N
1460034335.1,286047000.9,N
1460034336.0,286047000.9,N
1460034355.8,286046996.6,N
1460034375.6,286046995.2,N
1460034395.5,286046997.9,N
1460034415.3,286047000.5,N
1460034435.1,286047002.4,N
1460034455.9,286046998.1,N
1460034475.7,286046999.6,N
1460034495.5,286046997.8,N
1460034515.4,286046999.6,N
1460034535.2,286046996.6,N
1460034555.0,286046996.1,N
1460034555.9,286046996.1,N
1460034575.8,286046996.9,N
1460034595.6,286047000.0,N
1460034615.4,286046998.7,N
1460034635.2,286046996.8,N
1460034655.1,286046996.0,N
1460034656.0,286046996.0,N
1460034675.8,286046992.2,Y
1460034695.7,286046995.9,P
1460034715.5,286046996.7,N
1460034735.3,286046998.2,N
1460034755.1,286046999.0,N
1460034775.9,286046998.8,N
1460034795.7,286046999.8,N
1460034815.5,286046998.9,N
1460034835.4,286046996.7,N
1460034855.2,286046997.5,N
1460034875.0,286046996.8,N
1460034875.9,286046996.8,N
1460034895.8,286046996.6,N
1460034915.6,286046997.6,N
1460034935.4,286046995.2,Y
1460034955.3,286046996.8,P
1460034975.1,286046999.8,N
1460034976.0,286046999.8,N
1460034995.8,286047004.2,Y
1460035015.7,286047005.1,P
1460035035.5,286047007.2,N
1460035055.3,286047007.8,N
1460035075.2,286047014.7,Y
1460035095.0,286047011.6,P
1460035095.9,286047011.6,P
1460035115.7,286047014.0,P
1460035135.6,286047013.5,Y
1460035155.4,286046999.8,P
1460035175.2,286046999.7,N
1460035195.1,286047001.0,N
1460035196.0,286047001.0,N
1460035215.8,286046997.1,N
1460035235.6,286046997.4,N
1460035255.5,286047000.6,N
1460035275.3,286047005.5,N
1460035295.1,286047004.0,N
1460035315.9,286047004.2,N
1460035335.7,286047002.9,N
1460035355.5,286047001.8,N
1460035375.4,286047003.1,N
1460035395.2,286047003.6,N
1460035415.0,286046999.5,N
1460035415.9,286046999.5,N
1460035435.8,286047000.7,N
1460035455.6,286046998.2,N
1460035475.4,286046998.8,N
1460035495.2,286046996.8,N
1460035515.1,286046994.9,N
1460035516.0,286046994.9,N
1460035535.8,286046991.8,N
1460035555.6,286046991.5,N
1460035575.5,286046989.0,N
1460035595.3,286046993.1,N
1460035615.1,286046994.0,N
1460035635.9,286046995.1,N
1460035655.7,286046993.0,N
1460035675.5,286046991.5,N
1460035695.4,286046986.2,Y
1460035715.2,286046986.6,P
1460035735.0,286046983.5,N
1460035735.9,286046983.5,N
1460035755.8,286046980.9,Y
1460035775.6,286047000.0,P
1460035795.4,286046998.0,N
1460035815.3,286046995.6,N
1460035835.1,286046990.4,N
1460035836.0,286046990.4,N
1460035855.8,286046991.3,N
1460035875.7,286046990.5,N
1460035895.5,286046989.1,N
1460035915.3,286046992.0,N
1460035935.2,286046992.1,N
1460035955.9,286046998.6,N
1460035975.7,286046999.8,N
1460035995.6,286047004.4,N
1460036015.4,286047006.4,N
1460036035.2,286047006.5,N
1460036055.0,286047003.7,N
1460036055.9,286047003.7,N
1460036075.8,286047000.7,N
1460036095.6,286047000.3,N
1460036115.4,286047000.5,N
1460036135.3,286046998.8,N
1460036155.1,286046999.6,N
1460036175.8,286046995.0,N
1460036195.7,286046996.5,N
1460036215.5,286046999.5,N
1460036235.3,286046997.0,N
1460036255.2,286046997.4,N
1460036275.9,286046997.1,N
1460036295.7,286046994.5,N
1460036315.6,286046993.4,N
1460036335.4,286046991.7,N
1460036355.2,286046991.7,N
1460036375.0,286046994.3,N
1460036376.0,286046994.3,N
1460036395.8,286046992.0,N
1460036415.6,286046988.5,N
1460036435.5,286046988.6,N
1460036455.3,286046988.6,N
1460036475.1,286046990.8,N
1460036495.9,286046991.4,N
1460036515.7,286046992.7,N
1460036535.5,286046991.4,N
1460036555.4,286046987.9,N
1460036575.2,286046988.4,N
1460036595.0,286046987.5,N
1460036595.9,286046987.5,N
1460036615.8,286046987.1,N
1460036635.6,286046987.3,N
1460036655.4,286046989.0,N
1460036675.3,286046992.8,N
1460036695.1,286046990.5,N
1460036696.0,286046990.5,N
1460036715.8,286046988.7,Y
1460036735.7,286047001.1,P
1460036755.5,286046999.6,N
1460036775.3,286046995.0,N
1460036795.2,286046996.1,N
1460036815.9,286047001.1,N
1460036835.7,286046999.2,N
1460036855.5,286046998.5,N
1460036875.4,286047000.7,N
1460036895.2,286047001.4,N
1460036915.0,286047001.9,N
1460036915.9,286047001.9,N
1460036935.8,286046999.7,N
1460036955.6,286047004.4,N
1460036975.4,286047002.6,N
1460036995.3,286047001.1,N
1460037015.1,286047001.2,N
1460037035.8,286046998.1,N
1460037055.7,286047002.8,N
1460037075.5,286047002.6,N
1460037095.3,286047000.0,N
1460037115.2,286047001.0,N
1460037135.9,286046998.6,N
1460037155.7,286046998.8,N
1460037175.6,286047000.8,N
1460037195.4,286046999.6,N
1460037215.2,286046998.2,N
1460037235.0,286047002.5,N
1460037236.0,286047002.5,N
1460037255.8,286047002.4,N
1460037275.6,286047001.6,N
1460037295.4,286047002.7,N
1460037315.3,286046999.8,N
1460037335.1,286046998.6,N
1460037355.8,286047001.1,N
1460037375.7,286047000.7,N
1460037395.5,286047002.2,N
1460037415.3,286047005.3,Y
1460037435.2,286047005.5,P
1460037455.9,286047004.7,N
1460037475.7,286047004.0,N
1460037495.6,286047003.9,N
1460037515.4,286047003.9,N
1460037535.2,286047001.4,N
1460037555.1,286047004.3,N
1460037556.0,286047004.3,N
1460037575.8,286047005.5,Y
1460037595.6,286047002.6,P
